User: anonymous   Login
Location: San Francisco
(37.7750°N, 122.4180°W)
Time: 20:30:55
(UTC-07:00)
Language:

GP-B - Orbit

View from above orbital plane
View from above orbital plane
View from above satellite
View from above satellite

Ground track
Ground track

The orbit data is extracted from the following two-line orbital elements,

1 28230U 04014A   15212.49234065  .00000338  00000-0  44414-4 0  9993
2 28230 089.8769 134.0049 0003379 091.3992 268.7618 14.78204936607645
Epoch (UTC): 31 July 2015 11:48:58
Eccentricity: 0.0003379
inclination: 89.8769°
perigee height: 632 km
apogee height: 637 km
right ascension of ascending node: 134.0049°
argument of perigee: 91.3992°
revolutions per day: 14.78204936
mean anomaly at epoch: 268.7618°
orbit number at epoch: 60764

The dashed part of the orbit path shows where the satellite is in the earth's shadow,  

DLR